TimePDT,TemperatureF,Dew PointF,Humidity,Sea Level PressureIn,VisibilityMPH,Wind Direction,Wind SpeedMPH,Gust SpeedMPH,PrecipitationIn,Events,Conditions,WindDirDegrees,DateUTC
12:15 AM,48.2,44.6,87,29.90,10.0,NNE,8.1,-,N/A,,Overcast,20,2013-09-25 07:15:00
12:35 AM,48.2,44.6,87,29.90,10.0,NNE,8.1,-,N/A,,Overcast,20,2013-09-25 07:35:00
12:55 AM,48.2,44.6,87,29.90,10.0,NNE,5.8,-,N/A,,Overcast,20,2013-09-25 07:55:00
1:15 AM,48.2,44.6,87,29.90,8.0,NNE,6.9,-,N/A,,Overcast,30,2013-09-25 08:15:00
1:35 AM,48.2,44.6,87,29.90,6.0,NE,4.6,-,0.03,,Overcast,40,2013-09-25 08:35:00
1:55 AM,48.2,46.4,93,29.90,7.0,NE,3.5,-,0.03,,Overcast,50,2013-09-25 08:55:00
2:15 AM,48.2,46.4,93,29.90,10.0,NE,5.8,-,N/A,,Overcast,50,2013-09-25 09:15:00
2:35 AM,48.2,46.4,93,29.90,10.0,NE,5.8,-,N/A,,Overcast,50,2013-09-25 09:35:00
2:55 AM,48.2,46.4,93,29.90,10.0,NE,6.9,-,N/A,,Overcast,40,2013-09-25 09:55:00
3:15 AM,48.2,46.4,93,29.90,10.0,NNE,5.8,-,N/A,,Overcast,30,2013-09-25 10:15:00
3:35 AM,48.2,46.4,93,29.90,10.0,NNE,8.1,-,N/A,,Overcast,20,2013-09-25 10:35:00
3:55 AM,48.2,44.6,87,29.90,10.0,NNE,6.9,-,N/A,,Overcast,20,2013-09-25 10:55:00
4:15 AM,48.2,44.6,87,29.90,10.0,NE,6.9,-,N/A,,Mostly Cloudy,40,2013-09-25 11:15:00
4:35 AM,48.2,44.6,87,29.89,10.0,NE,6.9,-,N/A,,Mostly Cloudy,40,2013-09-25 11:35:00
4:55 AM,48.2,44.6,87,29.90,10.0,NNE,8.1,-,N/A,,Partly Cloudy,20,2013-09-25 11:55:00
5:15 AM,48.2,44.6,87,29.90,10.0,NNE,6.9,-,0.01,,Scattered Clouds,30,2013-09-25 12:15:00
5:35 AM,48.2,44.6,87,29.91,10.0,NNE,9.2,-,0.01,,Scattered Clouds,20,2013-09-25 12:35:00
5:55 AM,48.2,44.6,87,29.91,10.0,NNE,6.9,-,0.01,,Partly Cloudy,20,2013-09-25 12:55:00
6:15 AM,48.2,44.6,87,29.92,10.0,NNE,8.1,-,N/A,,Partly Cloudy,30,2013-09-25 13:15:00
6:35 AM,48.2,44.6,87,29.92,10.0,NNE,10.4,-,N/A,,Mostly Cloudy,30,2013-09-25 13:35:00
6:55 AM,48.2,44.6,87,29.92,10.0,NNE,10.4,-,0.01,,Overcast,30,2013-09-25 13:55:00
7:15 AM,48.2,44.6,87,29.93,10.0,NE,8.1,-,N/A,,Mostly Cloudy,40,2013-09-25 14:15:00
7:35 AM,48.2,44.6,87,29.93,10.0,NNE,8.1,-,N/A,,Mostly Cloudy,20,2013-09-25 14:35:00
7:55 AM,48.2,44.6,87,29.94,10.0,NNE,10.4,-,N/A,,Partly Cloudy,30,2013-09-25 14:55:00
8:15 AM,48.2,44.6,87,29.95,10.0,NE,10.4,-,N/A,,Partly Cloudy,40,2013-09-25 15:15:00
8:35 AM,48.2,44.6,87,29.95,10.0,NE,8.1,-,N/A,,Partly Cloudy,50,2013-09-25 15:35:00
8:55 AM,48.2,44.6,87,29.96,10.0,NE,6.9,-,N/A,,Clear,50,2013-09-25 15:55:00
9:15 AM,50.0,46.4,87,29.96,10.0,NE,8.1,-,N/A,,Mostly Cloudy,40,2013-09-25 16:15:00
9:35 AM,50.0,46.4,87,29.97,10.0,NNE,6.9,-,N/A,,Overcast,20,2013-09-25 16:35:00
9:55 AM,53.6,48.2,82,29.97,10.0,North,8.1,-,N/A,,Overcast,10,2013-09-25 16:55:00
10:15 AM,53.6,46.4,77,29.97,10.0,North,8.1,-,N/A,,Overcast,10,2013-09-25 17:15:00
10:35 AM,51.8,46.4,82,29.97,10.0,North,11.5,-,N/A,,Overcast,10,2013-09-25 17:35:00
10:55 AM,51.8,46.4,82,29.98,10.0,North,11.5,17.3,N/A,,Overcast,10,2013-09-25 17:55:00
11:15 AM,53.6,46.4,77,29.97,10.0,NNE,11.5,16.1,N/A,,Mostly Cloudy,20,2013-09-25 18:15:00
11:35 AM,53.6,46.4,77,29.97,10.0,NNE,11.5,18.4,N/A,,Scattered Clouds,30,2013-09-25 18:35:00
11:55 AM,53.6,46.4,77,29.98,10.0,North,12.7,16.1,N/A,,Partly Cloudy,360,2013-09-25 18:55:00
12:15 PM,55.4,46.4,72,29.99,10.0,NNE,11.5,17.3,N/A,,Mostly Cloudy,20,2013-09-25 19:15:00
12:35 PM,55.4,46.4,72,29.98,10.0,NNE,11.5,-,N/A,,Mostly Cloudy,20,2013-09-25 19:35:00
12:55 PM,55.4,46.4,72,30.00,10.0,NNE,6.9,-,N/A,,Overcast,20,2013-09-25 19:55:00
1:15 PM,55.4,46.4,72,29.99,10.0,North,9.2,-,N/A,,Overcast,10,2013-09-25 20:15:00
1:35 PM,53.6,46.4,77,30.00,10.0,North,8.1,-,N/A,,Overcast,10,2013-09-25 20:35:00
1:55 PM,53.6,44.6,72,30.00,10.0,North,5.8,-,N/A,,Overcast,10,2013-09-25 20:55:00
2:15 PM,55.4,44.6,67,29.99,10.0,NE,5.8,-,N/A,,Overcast,40,2013-09-25 21:15:00
2:35 PM,55.4,46.4,72,30.00,10.0,NNE,8.1,-,N/A,,Overcast,30,2013-09-25 21:35:00
2:55 PM,55.4,46.4,72,30.00,10.0,Calm,Calm,-,N/A,,Overcast,0,2013-09-25 21:55:00
3:15 PM,55.4,44.6,67,30.01,10.0,ENE,3.5,-,N/A,,Overcast,70,2013-09-25 22:15:00
3:35 PM,57.2,44.6,63,30.00,10.0,Calm,Calm,-,N/A,,Overcast,0,2013-09-25 22:35:00
3:55 PM,57.2,44.6,63,30.01,10.0,Calm,Calm,-,N/A,,Overcast,0,2013-09-25 22:55:00
4:15 PM,57.2,46.4,67,30.02,10.0,East,4.6,-,N/A,,Overcast,80,2013-09-25 23:15:00
4:35 PM,57.2,46.4,67,30.02,10.0,Calm,Calm,-,N/A,,Overcast,0,2013-09-25 23:35:00
4:55 PM,55.4,46.4,72,30.02,10.0,Calm,Calm,-,N/A,,Mostly Cloudy,0,2013-09-25 23:55:00
5:15 PM,57.2,46.4,67,30.02,10.0,Calm,Calm,-,N/A,,Overcast,0,2013-09-26 00:15:00
5:35 PM,55.4,46.4,72,30.02,10.0,East,4.6,-,N/A,,Mostly Cloudy,90,2013-09-26 00:35:00
5:55 PM,55.4,46.4,72,30.03,7.0,East,4.6,-,N/A,,Scattered Clouds,100,2013-09-26 00:55:00
6:15 PM,55.4,46.4,72,30.01,10.0,ENE,3.5,-,N/A,,Scattered Clouds,70,2013-09-26 01:15:00
6:35 PM,55.4,46.4,72,30.03,10.0,Calm,Calm,-,N/A,,Mostly Cloudy,0,2013-09-26 01:35:00
6:55 PM,53.6,46.4,77,30.03,10.0,Calm,Calm,-,N/A,,Mostly Cloudy,0,2013-09-26 01:55:00
7:15 PM,53.6,46.4,77,30.04,10.0,Calm,Calm,-,N/A,,Overcast,0,2013-09-26 02:15:00
7:35 PM,51.8,46.4,82,30.03,10.0,ESE,4.6,-,N/A,,Mostly Cloudy,120,2013-09-26 02:35:00
7:55 PM,50.0,46.4,87,30.04,10.0,Calm,Calm,-,N/A,,Scattered Clouds,0,2013-09-26 02:55:00
8:15 PM,48.2,44.6,87,30.04,10.0,Calm,Calm,-,N/A,,Clear,0,2013-09-26 03:15:00
8:35 PM,46.4,42.8,87,30.04,10.0,Calm,Calm,-,N/A,,Mostly Cloudy,0,2013-09-26 03:35:00
8:55 PM,46.4,42.8,87,30.05,10.0,Calm,Calm,-,N/A,,Mostly Cloudy,0,2013-09-26 03:55:00
9:15 PM,46.4,44.6,93,30.05,10.0,Calm,Calm,-,N/A,,Overcast,0,2013-09-26 04:15:00
9:35 PM,46.4,44.6,93,30.06,10.0,Calm,Calm,-,N/A,,Overcast,0,2013-09-26 04:35:00
9:55 PM,46.4,42.8,87,30.06,10.0,Calm,Calm,-,N/A,,Scattered Clouds,0,2013-09-26 04:55:00
10:15 PM,44.6,41.0,87,30.06,10.0,Calm,Calm,-,N/A,,Clear,0,2013-09-26 05:15:00
10:35 PM,42.8,39.2,87,30.06,10.0,Calm,Calm,-,N/A,,Clear,0,2013-09-26 05:35:00
10:55 PM,42.8,39.2,87,30.06,10.0,Calm,Calm,-,N/A,,Clear,0,2013-09-26 05:55:00
11:15 PM,42.8,39.2,87,30.05,10.0,Calm,Calm,-,N/A,,Clear,0,2013-09-26 06:15:00
11:35 PM,42.8,39.2,87,30.07,10.0,Calm,Calm,-,N/A,,Clear,0,2013-09-26 06:35:00
11:55 PM,41.0,37.4,87,30.07,10.0,Calm,Calm,-,N/A,,Clear,0,2013-09-26 06:55:00